This is the latest recevied weather packets stored in our database for station/object W4BOD. If no packets are shown the sender has not sent any weather packets the latest 10 day(s).
| Time | Temp. | Humidity | Pressure | Rain* | Wind** | Luminosity | Snow |
|---|---|---|---|---|---|---|---|
| 1778004633 | 22.22° C | 61% | 1010.5 hPa | 0 mm | - | 297 W/m² | - |
| 1778004328 | 22.22° C | 63% | 1010.3 hPa | 0 mm | - | 295 W/m² | - |
| 1778004026 | 22.22° C | 63% | 1010.7 hPa | 0 mm | - | 306 W/m² | - |
| 1778003721 | 22.22° C | 62% | 1010.7 hPa | 0 mm | - | 281 W/m² | - |
| 1778003418 | 22.78° C | 62% | 1010.9 hPa | 0 mm | - | 373 W/m² | - |
| 1778003115 | 22.78° C | 64% | 1010.9 hPa | 0 mm | - | 578 W/m² | - |
| 1778002811 | 22.78° C | 62% | 1010.9 hPa | 0 mm | - | 440 W/m² | - |
| 1778002508 | 22.22° C | 63% | 1011 hPa | 0 mm | - | 386 W/m² | - |
| 1778002204 | 22.78° C | 63% | 1011 hPa | 0 mm | - | 459 W/m² | - |
| 1778001903 | 22.78° C | 62% | 1011.3 hPa | 0 mm | - | 487 W/m² | - |
| 1778001597 | 22.22° C | 63% | 1011.2 hPa | 0 mm | - | 525 W/m² | - |
| 1778001293 | 22.22° C | 64% | 1011.4 hPa | 0 mm | - | 333 W/m² | - |
| 1778000990 | 22.22° C | 64% | 1011.5 hPa | 0 mm | - | 326 W/m² | - |
| 1778000687 | 21.67° C | 64% | 1011.9 hPa | 0 mm | - | 280 W/m² | - |
| 1778000383 | 21.67° C | 64% | 1011.7 hPa | 0 mm | - | 230 W/m² | - |
| 1778000078 | 21.67° C | 64% | 1012 hPa | 0 mm | - | 179 W/m² | - |
| 1777999774 | 21.67° C | 65% | 1012.2 hPa | 0 mm | - | 202 W/m² | - |
| 1777999471 | 22.22° C | 65% | 1012.1 hPa | 0 mm | - | 254 W/m² | - |
| 1777999169 | 22.22° C | 64% | 1012.3 hPa | 0 mm | - | 248 W/m² | - |
| 1777998867 | 22.22° C | 63% | 1012.4 hPa | 0 mm | - | 310 W/m² | - |
| 1777998566 | 22.22° C | 65% | 1012.4 hPa | 0 mm | - | 373 W/m² | - |
| 1777998261 | 22.22° C | 63% | 1012.3 hPa | 0 mm | - | 333 W/m² | - |
| 1777997959 | 22.22° C | 65% | 1012.6 hPa | 0 mm | - | 335 W/m² | - |
| 1777997655 | 22.22° C | 65% | 1012.6 hPa | 0 mm | - | 326 W/m² | - |
| 1777997353 | 22.22° C | 63% | 1012.5 hPa | 0 mm | - | 303 W/m² | - |
* Rain latest hour (hover to see other rain measurements)
** Current wind speed in m/s (hover to see current wind gust speed)